Voltar ao catálogo

COSMOS 794

AtivoMilitarLEO
NORAD 8610·PAYLOAD·🇷🇺 Russia

Lançado Jan 28, 1976 de Plesetsk Cosmodrome

Loading…

Próximas Passagens (próximas 24 horas)

TLE

AtualizadoSource: Space-Track

Época: Sep 14, 2026, 15:44 UTC

1 08610U 76008D   26257.65607119  .00000002  00000-0  11972-3 0  9998
2 08610  74.0579 329.1154 0026070 123.9415  30.1484 12.48158399306856

Acompanhe COSMOS 794 em tempo real com AllMySat

Download on the App Store